World > North America > United States > Pennsylvania

Friedens, Pennsylvania Regional Weather

Lat: 40.04N, Lon: 79.01W
Wx Zone: PAZ033Web Search
Friedens Weather Warning NWS WEATHER ALERT FOR THE FRIEDENS, PA AREA - HARD FROST ADVISORY Issued: 315 PM EDT Sat May 8 2021 Friedens Weather Warning  

Our weather pages are very print friendly and they make great conversation starters.

Feedback


°F Click to change Friedens hourly weather to Imperial units.Click to change Friedens hourly weather to Metric units. °C
Friedens Weather Map
UTC Time: 5/9/2021, 05:21
Your Time:

Friedens, PA Regional Weather

Expires:202105090600;;821957
ASUS41 KCTP 090510
RWRCTP

REGIONAL WEATHER ROUNDUP
NATIONAL WEATHER SERVICE STATE COLLEGE PA
100 AM EDT SUN MAY 09 2021

Note: "fair" indicates few or no clouds below 12,000 feet with no 
significant weather and/or obstructions to visibility.

* = STATION THAT DOES NOT REPORT PRECIPITATION /E.G. RAIN...SNOW...ETC/
    THUNDER OR FOG.


PAZ004>006-010>012-017>019-024>028-033>037-041-042-045-046-049>053-090600-
CENTRAL PENNSYLVANIA
  
CITY           SKY/WX    TMP DP  RH WIND       PRES   REMARKS
BRADFORD       PTCLDY    33  29  85 CALM      30.05S                  
ST MARYS       PTCLDY    34  34 100 CALM      30.09F                  
DUBOIS         PTCLDY    34  31  88 CALM      30.06S                  
CLEARFIELD     PTCLDY    35  33  92 CALM      30.08S                  
JOHNSTOWN      PTCLDY    37  28  70 CALM      30.06S                  
SOMERSET       FAIR      32  30  93 CALM      30.07F                  
ALTOONA        PTCLDY    37  30  75 CALM      30.09S                  
STATE COLLEGE  PTCLDY    37  32  81 SW3       30.08S                  
REEDSVILLE     FAIR      43 N/A N/A CALM      30.09S                  
WELLSBORO      FAIR      36  34  93 W7        30.04S                  
WILLIAMSPORT   MOCLDY    44  40  85 W10       30.07R                  
SELINSGROVE    CLEAR     44  36  73 CALM      30.09R                  
FT INDIANTOWN  CLEAR     46  37  69 W13G18    30.07R                  
CAPITAL CITY   CLEAR     44  35  70 W5        30.09R                  
HARRISBURG     CLEAR     48  35  60 NW9       30.08R                  
YORK           CLEAR     43  33  68 W5        30.08S                  
$$


SKY/WX - Weather  TMP - Temperature  DP - Dew Point  RH - Relative Humidity
WIND - Wind Direction/Speed PRES - Barometric Pressure VSB - Visibility
WCI - Wind Chill Index E13G22 Wind - East Wind 13 mph/Gusts of 22 mph